Language: 


Des rapports , des résumés tant et plus, au choix de chacun....


Données statistiques de la station
Quotidien Rapport Octobre 22, 2017 Unités:  Métrique    Anglais   les deux
« Précédent Jour
Suivant Jour »
Quotidien Hebdomadaire Mensuel Annuel Actuel
  Haut: Bas: Moyen:
Température: 13.6 °C 0.0 °C 8 °C
Pt de rosée: 10.0 °C 7.0 °C 8.9 °C
Humidité: 95 % 0 % 60 %
Vitesse du vent: 31.4 km/h 0.0 km/h 12.2 km/h
Rafales: 35.6 km/h - -
Vent:- - WSW
Pression: 1016.8 hPa 1007.0 hPa -
Précipitation: 11.7 mm    
Historical Graphs
 
 
Données statistiques pour Octobre 22, 2017
Heure Température Point de rosée Pression Vent Vitesse du vent Refales Humidité Pluie (taux horaire)
00:03 11.6 °C 9.0 °C 1008.0 hPa SSW 18.3 km/h 28.5 km/h 81 % 0.0 mm
00:08 11.6 °C 9.0 °C 1008.0 hPa SW 14.8 km/h 28.5 km/h 81 % 0.0 mm
00:12 11.6 °C 9.0 °C 1008.0 hPa South 19.8 km/h 27.4 km/h 81 % 0.0 mm
00:17 11.6 °C 9.0 °C 1008.0 hPa SW 25.9 km/h 25.9 km/h 81 % 0.0 mm
00:22 11.6 °C 9.0 °C 1008.0 hPa SSW 20.9 km/h 27.7 km/h 81 % 0.0 mm
00:27 11.6 °C 9.0 °C 1008.0 hPa SSW 17.2 km/h 30.9 km/h 81 % 0.0 mm
00:32 11.6 °C 9.0 °C 1008.0 hPa SSW 20.9 km/h 30.9 km/h 81 % 0.0 mm
00:37 11.6 °C 9.0 °C 1008.0 hPa SSW 27.0 km/h 28.5 km/h 81 % 0.0 mm
00:42 11.6 °C 9.0 °C 1008.0 hPa SSW 30.9 km/h 30.9 km/h 81 % 0.0 mm
00:47 11.6 °C 9.0 °C 1008.0 hPa SW 20.9 km/h 30.9 km/h 81 % 0.0 mm
00:52 11.6 °C 9.0 °C 1008.0 hPa West 16.9 km/h 35.6 km/h 81 % 0.0 mm
00:57 11.6 °C 9.0 °C 1008.0 hPa SSW 16.9 km/h 35.6 km/h 81 % 0.0 mm
01:02 11.6 °C 9.0 °C 1007.0 hPa SW 20.9 km/h 28.0 km/h 81 % 0.0 mm
01:07 11.6 °C 9.0 °C 1007.0 hPa SW 17.7 km/h 28.0 km/h 81 % 0.0 mm
01:12 11.6 °C 9.0 °C 1007.0 hPa SSW 15.8 km/h 28.0 km/h 81 % 0.0 mm
01:17 11.6 °C 9.0 °C 1007.0 hPa SW 17.7 km/h 28.0 km/h 81 % 0.0 mm
01:22 11.6 °C 9.0 °C 1007.0 hPa SW 20.6 km/h 24.5 km/h 81 % 0.0 mm
01:28 11.6 °C 9.0 °C 1007.0 hPa SW 20.6 km/h 24.5 km/h 81 % 0.3 mm
01:33 11.6 °C 9.0 °C 1007.0 hPa SW 20.6 km/h 24.5 km/h 81 % 0.8 mm
01:38 11.6 °C 9.0 °C 1007.0 hPa SSW 19.1 km/h 20.1 km/h 81 % 1.3 mm
01:43 11.6 °C 9.0 °C 1007.0 hPa SW 27.7 km/h 27.7 km/h 81 % 1.3 mm
01:48 11.6 °C 9.0 °C 1007.0 hPa SW 27.7 km/h 27.7 km/h 81 % 1.5 mm
01:53 11.6 °C 9.0 °C 1007.0 hPa SSW 15.1 km/h 27.7 km/h 81 % 2.3 mm
01:58 11.6 °C 9.0 °C 1007.0 hPa SW 14.0 km/h 20.9 km/h 81 % 2.5 mm
02:03 11.6 °C 9.0 °C 1007.0 hPa WSW 19.1 km/h 19.8 km/h 81 % 3.3 mm
02:08 11.6 °C 9.0 °C 1007.0 hPa WSW 17.2 km/h 20.1 km/h 81 % 3.8 mm
02:13 11.6 °C 9.0 °C 1007.0 hPa SW 22.7 km/h 31.7 km/h 81 % 4.6 mm
02:18 11.6 °C 9.0 °C 1007.0 hPa SW 16.6 km/h 31.7 km/h 81 % 5.1 mm
02:23 11.6 °C 9.0 °C 1007.0 hPa WSW 11.9 km/h 23.3 km/h 81 % 5.6 mm
02:28 11.6 °C 9.0 °C 1007.0 hPa South 17.2 km/h 23.8 km/h 81 % 5.6 mm
02:38 11.6 °C 9.0 °C 1007.0 hPa SW 21.2 km/h 23.3 km/h 81 % 5.8 mm
02:43 11.6 °C 9.0 °C 1007.0 hPa SW 27.7 km/h 27.7 km/h 81 % 6.6 mm
02:48 11.6 °C 9.0 °C 1007.0 hPa WSW 20.1 km/h 27.7 km/h 81 % 6.9 mm
02:53 11.6 °C 9.0 °C 1007.0 hPa West 14.3 km/h 25.3 km/h 81 % 6.3 mm
02:58 11.6 °C 9.0 °C 1007.0 hPa WSW 21.2 km/h 21.2 km/h 81 % 6.3 mm
03:03 0.0 °C 9.0 °C 1007.0 hPa SW 24.5 km/h 24.5 km/h 0 % 6.3 mm
03:09 0.0 °C 9.0 °C 1007.0 hPa SW 16.6 km/h 27.4 km/h 0 % 6.3 mm
03:14 0.0 °C 9.0 °C 1007.0 hPa SW 20.1 km/h 27.4 km/h 0 % 6.3 mm
03:19 0.0 °C 9.0 °C 1008.0 hPa SW 16.9 km/h 21.2 km/h 0 % 6.3 mm
03:24 0.0 °C 9.0 °C 1008.0 hPa SW 16.9 km/h 20.6 km/h 0 % 6.3 mm
03:29 0.0 °C 9.0 °C 1008.0 hPa WSW 20.9 km/h 20.9 km/h 0 % 6.3 mm
03:34 0.0 °C 9.0 °C 1007.0 hPa SSW 20.6 km/h 20.9 km/h 0 % 6.3 mm
03:39 0.0 °C 9.0 °C 1007.0 hPa WSW 24.8 km/h 24.8 km/h 0 % 6.3 mm
03:44 0.0 °C 9.0 °C 1007.0 hPa SSW 16.3 km/h 27.0 km/h 0 % 6.3 mm
03:49 0.0 °C 9.0 °C 1007.0 hPa SW 12.2 km/h 21.2 km/h 0 % 6.3 mm
03:54 0.0 °C 9.0 °C 1007.0 hPa SSW 16.9 km/h 21.2 km/h 0 % 6.3 mm
03:59 0.0 °C 9.0 °C 1007.0 hPa SW 15.1 km/h 23.8 km/h 0 % 6.3 mm
04:04 0.0 °C 9.0 °C 1007.0 hPa SSW 17.7 km/h 23.8 km/h 0 % 6.3 mm
04:14 0.0 °C 9.0 °C 1007.0 hPa SSW 20.1 km/h 26.2 km/h 0 % 6.3 mm
04:19 0.0 °C 9.0 °C 1007.0 hPa SSW 13.0 km/h 26.2 km/h 0 % 6.3 mm
04:24 0.0 °C 9.0 °C 1007.0 hPa SSW 14.0 km/h 24.5 km/h 0 % 6.3 mm
04:29 0.0 °C 9.0 °C 1007.0 hPa WSW 12.2 km/h 24.5 km/h 0 % 6.3 mm
04:35 0.0 °C 9.0 °C 1008.0 hPa SSW 14.8 km/h 20.9 km/h 0 % 6.3 mm
04:40 0.0 °C 9.0 °C 1008.0 hPa SSW 20.6 km/h 20.9 km/h 0 % 6.3 mm
04:45 0.0 °C 9.0 °C 1008.0 hPa SW 16.9 km/h 20.6 km/h 0 % 6.3 mm
04:50 0.0 °C 9.0 °C 1008.0 hPa SSW 19.5 km/h 20.6 km/h 0 % 6.3 mm
04:55 0.0 °C 9.0 °C 1008.0 hPa South 13.0 km/h 20.1 km/h 0 % 6.3 mm
05:00 0.0 °C 9.0 °C 1008.0 hPa WSW 10.5 km/h 17.7 km/h 0 % 6.3 mm
05:05 0.0 °C 9.0 °C 1008.0 hPa SW 7.9 km/h 17.7 km/h 0 % 6.3 mm
05:10 0.0 °C 9.0 °C 1008.0 hPa SSW 20.1 km/h 20.1 km/h 0 % 6.3 mm
05:16 0.0 °C 9.0 °C 1007.0 hPa SSW 25.6 km/h 25.6 km/h 0 % 6.3 mm
05:21 0.0 °C 9.0 °C 1007.0 hPa SW 16.6 km/h 25.6 km/h 0 % 6.3 mm
05:24 0.0 °C 9.0 °C 1007.0 hPa SW 17.2 km/h 25.6 km/h 0 % 6.3 mm
05:25 0.0 °C 9.0 °C 1007.0 hPa SSW 15.8 km/h 25.6 km/h 0 % 6.3 mm
05:26 0.0 °C 9.0 °C 1007.0 hPa SSW 17.7 km/h 17.7 km/h 0 % 6.3 mm
05:28 0.0 °C 9.0 °C 1007.0 hPa SSW 15.4 km/h 17.7 km/h 0 % 6.3 mm
05:31 0.0 °C 9.0 °C 1008.0 hPa SSW 13.7 km/h 19.8 km/h 0 % 6.3 mm
05:41 0.0 °C 9.0 °C 1008.0 hPa WSW 11.1 km/h 23.3 km/h 0 % 6.3 mm
05:46 0.0 °C 9.0 °C 1008.0 hPa SW 16.3 km/h 21.2 km/h 0 % 6.3 mm
05:48 0.0 °C 9.0 °C 1008.0 hPa SSW 13.7 km/h 21.2 km/h 0 % 6.3 mm
05:53 0.0 °C 9.0 °C 1008.0 hPa SSW 27.4 km/h 27.4 km/h 0 % 6.3 mm
05:58 0.0 °C 9.0 °C 1008.0 hPa SW 17.7 km/h 27.4 km/h 0 % 6.3 mm
06:03 0.0 °C 9.0 °C 1008.0 hPa SW 16.3 km/h 22.4 km/h 0 % 6.3 mm
06:08 0.0 °C 9.0 °C 1008.0 hPa SSW 14.8 km/h 17.7 km/h 0 % 6.3 mm
06:13 0.0 °C 9.0 °C 1008.0 hPa SW 12.2 km/h 16.9 km/h 0 % 6.3 mm
06:19 0.0 °C 9.0 °C 1009.0 hPa SSW 19.1 km/h 19.5 km/h 0 % 6.3 mm
06:24 0.0 °C 9.0 °C 1009.0 hPa SSW 12.2 km/h 20.6 km/h 0 % 6.3 mm
06:29 0.0 °C 9.0 °C 1009.0 hPa WSW 12.6 km/h 20.6 km/h 0 % 6.3 mm
06:34 0.0 °C 9.0 °C 1009.0 hPa SSW 13.7 km/h 17.7 km/h 0 % 6.3 mm
06:39 0.0 °C 9.0 °C 1009.0 hPa SW 13.0 km/h 16.9 km/h 0 % 6.3 mm
06:44 0.0 °C 9.0 °C 1009.0 hPa WSW 10.5 km/h 16.9 km/h 0 % 6.3 mm
06:49 0.0 °C 9.0 °C 1009.0 hPa SSW 8.7 km/h 14.0 km/h 0 % 6.3 mm
06:54 0.0 °C 9.0 °C 1009.0 hPa SSW 10.1 km/h 14.0 km/h 0 % 6.3 mm
06:59 0.0 °C 9.0 °C 1009.0 hPa SSW 12.2 km/h 17.2 km/h 0 % 6.3 mm
07:04 0.0 °C 9.0 °C 1009.0 hPa SW 11.9 km/h 17.2 km/h 0 % 6.3 mm
07:09 0.0 °C 9.0 °C 1009.0 hPa SW 11.9 km/h 17.2 km/h 0 % 6.3 mm
07:14 0.0 °C 9.0 °C 1009.0 hPa WSW 11.6 km/h 14.8 km/h 0 % 6.3 mm
07:19 0.0 °C 9.0 °C 1009.0 hPa SW 9.7 km/h 14.3 km/h 0 % 6.3 mm
07:24 0.0 °C 9.0 °C 1009.0 hPa WSW 15.8 km/h 15.8 km/h 0 % 6.3 mm
07:29 0.0 °C 9.0 °C 1009.0 hPa WSW 9.3 km/h 15.8 km/h 0 % 6.3 mm
07:34 0.0 °C 9.0 °C 1008.0 hPa SW 11.6 km/h 14.0 km/h 0 % 6.3 mm
07:39 0.0 °C 9.0 °C 1008.0 hPa WSW 19.1 km/h 19.1 km/h 0 % 6.3 mm
07:44 0.0 °C 9.0 °C 1008.0 hPa WSW 12.6 km/h 19.1 km/h 0 % 6.3 mm
07:49 0.0 °C 9.0 °C 1009.0 hPa SW 9.3 km/h 16.3 km/h 0 % 6.3 mm
07:54 0.0 °C 9.0 °C 1009.0 hPa WSW 9.0 km/h 12.6 km/h 0 % 6.3 mm
07:59 0.0 °C 9.0 °C 1009.0 hPa WSW 11.9 km/h 14.8 km/h 0 % 6.3 mm
08:04 0.0 °C 9.0 °C 1009.0 hPa WSW 10.1 km/h 17.2 km/h 0 % 6.3 mm
08:10 0.0 °C 9.0 °C 1009.0 hPa WSW 12.6 km/h 17.2 km/h 0 % 6.3 mm
08:15 0.0 °C 9.0 °C 1009.0 hPa WSW 10.1 km/h 15.8 km/h 0 % 6.3 mm
08:20 0.0 °C 9.0 °C 1010.0 hPa WSW 8.7 km/h 16.3 km/h 0 % 6.3 mm
08:25 0.0 °C 9.0 °C 1010.0 hPa West 12.6 km/h 18.3 km/h 0 % 6.3 mm
08:30 0.0 °C 9.0 °C 1010.0 hPa WSW 14.0 km/h 18.3 km/h 0 % 6.3 mm
08:35 0.0 °C 9.0 °C 1010.0 hPa WSW 11.6 km/h 16.6 km/h 0 % 6.3 mm
08:40 0.0 °C 9.0 °C 1010.0 hPa WSW 16.9 km/h 16.9 km/h 0 % 6.3 mm
08:45 0.0 °C 9.0 °C 1010.0 hPa West 12.2 km/h 16.9 km/h 0 % 6.3 mm
08:50 0.0 °C 9.0 °C 1011.1 hPa West 17.7 km/h 17.7 km/h 0 % 6.3 mm
08:55 0.0 °C 9.0 °C 1011.1 hPa West 9.0 km/h 17.7 km/h 0 % 6.3 mm
09:00 0.0 °C 9.0 °C 1011.1 hPa West 14.0 km/h 17.2 km/h 0 % 6.3 mm
09:05 0.0 °C 9.0 °C 1011.1 hPa SSW 9.0 km/h 17.2 km/h 0 % 6.3 mm
09:10 0.0 °C 9.0 °C 1011.1 hPa West 12.6 km/h 15.8 km/h 0 % 6.3 mm
09:15 0.0 °C 9.0 °C 1011.1 hPa WSW 14.0 km/h 16.6 km/h 0 % 6.3 mm
09:20 0.0 °C 9.0 °C 1011.1 hPa West 9.7 km/h 16.6 km/h 0 % 6.3 mm
09:25 0.0 °C 9.0 °C 1011.1 hPa WSW 12.2 km/h 12.6 km/h 0 % 6.3 mm
09:30 0.0 °C 9.0 °C 1011.1 hPa WSW 9.3 km/h 12.6 km/h 0 % 6.3 mm
09:35 0.0 °C 9.0 °C 1011.1 hPa WSW 10.5 km/h 12.6 km/h 0 % 6.3 mm
09:40 0.0 °C 9.0 °C 1011.1 hPa WSW 9.0 km/h 14.0 km/h 0 % 6.3 mm
09:45 0.0 °C 9.0 °C 1011.1 hPa WSW 11.9 km/h 14.0 km/h 0 % 6.3 mm
09:50 11.0 °C 10.0 °C 1011.1 hPa WSW 11.9 km/h 14.0 km/h 95 % 0.0 mm
09:56 11.2 °C 10.0 °C 1011.1 hPa WSW 11.9 km/h 11.9 km/h 94 % 0.0 mm
10:01 11.3 °C 10.0 °C 1011.1 hPa WSW 11.9 km/h 11.9 km/h 94 % 0.0 mm
10:06 11.3 °C 10.0 °C 1011.1 hPa WSW 11.9 km/h 11.9 km/h 94 % 0.0 mm
10:11 11.3 °C 10.0 °C 1011.1 hPa WSW 11.9 km/h 11.9 km/h 94 % 0.0 mm
10:16 11.3 °C 10.0 °C 1011.1 hPa WSW 11.9 km/h 11.9 km/h 94 % 0.0 mm
10:21 11.3 °C 10.0 °C 1011.1 hPa WSW 11.9 km/h 11.9 km/h 94 % 0.0 mm
10:26 11.3 °C 10.0 °C 1011.1 hPa WSW 11.9 km/h 11.9 km/h 94 % 0.0 mm
10:31 11.3 °C 10.0 °C 1011.1 hPa WSW 11.9 km/h 11.9 km/h 94 % 0.0 mm
10:36 11.3 °C 10.0 °C 1011.1 hPa WSW 11.9 km/h 11.9 km/h 94 % 0.0 mm
10:41 11.3 °C 10.0 °C 1011.1 hPa WSW 11.9 km/h 11.9 km/h 94 % 0.0 mm
10:46 11.3 °C 10.0 °C 1011.1 hPa WSW 11.9 km/h 11.9 km/h 94 % 0.0 mm
10:51 11.3 °C 10.0 °C 1011.1 hPa WSW 17.2 km/h 17.2 km/h 94 % 0.0 mm
10:56 11.3 °C 10.0 °C 1011.1 hPa WSW 17.2 km/h 17.2 km/h 94 % 0.0 mm
11:01 11.3 °C 10.0 °C 1011.1 hPa WSW 17.2 km/h 17.2 km/h 94 % 0.0 mm
11:06 11.3 °C 10.0 °C 1011.1 hPa West 12.6 km/h 12.6 km/h 94 % 0.0 mm
11:11 11.3 °C 10.0 °C 1011.1 hPa West 12.6 km/h 12.6 km/h 94 % 0.0 mm
11:16 11.3 °C 10.0 °C 1012.1 hPa West 12.6 km/h 12.6 km/h 94 % 0.0 mm
11:22 11.3 °C 10.0 °C 1012.1 hPa West 20.9 km/h 20.9 km/h 94 % 0.0 mm
11:27 11.3 °C 10.0 °C 1012.1 hPa West 20.9 km/h 20.9 km/h 94 % 0.0 mm
11:32 11.3 °C 10.0 °C 1012.1 hPa West 20.9 km/h 20.9 km/h 94 % 0.0 mm
11:37 11.3 °C 10.0 °C 1012.1 hPa West 20.9 km/h 20.9 km/h 94 % 0.0 mm
11:42 11.3 °C 10.0 °C 1012.1 hPa WSW 28.0 km/h 28.0 km/h 94 % 0.0 mm
11:47 11.3 °C 10.0 °C 1013.1 hPa WSW 21.2 km/h 28.0 km/h 94 % 0.0 mm
11:52 11.3 °C 10.0 °C 1013.1 hPa WSW 21.2 km/h 28.0 km/h 94 % 0.0 mm
11:57 11.3 °C 10.0 °C 1013.1 hPa WSW 21.2 km/h 28.0 km/h 94 % 0.0 mm
12:00 11.3 °C 10.0 °C 1013.1 hPa WSW 21.2 km/h 28.0 km/h 94 % 0.0 mm
12:05 11.3 °C 10.0 °C 1013.1 hPa WSW 21.2 km/h 28.0 km/h 94 % 0.0 mm
12:10 11.3 °C 10.0 °C 1013.1 hPa West 21.2 km/h 21.2 km/h 94 % 0.0 mm
12:15 11.3 °C 10.0 °C 1013.1 hPa West 21.2 km/h 21.2 km/h 94 % 0.0 mm
12:20 11.3 °C 10.0 °C 1013.1 hPa West 21.2 km/h 21.2 km/h 94 % 0.0 mm
12:25 11.3 °C 10.0 °C 1013.1 hPa West 21.2 km/h 21.2 km/h 94 % 0.0 mm
12:30 11.3 °C 10.0 °C 1013.1 hPa WSW 14.0 km/h 14.0 km/h 94 % 0.0 mm
12:35 11.3 °C 10.0 °C 1013.1 hPa West 23.0 km/h 31.4 km/h 94 % 0.0 mm
12:40 11.3 °C 10.0 °C 1013.1 hPa West 27.7 km/h 31.4 km/h 94 % 0.0 mm
12:45 11.3 °C 10.0 °C 1013.1 hPa West 20.6 km/h 27.7 km/h 94 % 0.0 mm
12:50 11.3 °C 10.0 °C 1013.1 hPa WNW 24.8 km/h 27.7 km/h 94 % 0.0 mm
12:55 11.3 °C 10.0 °C 1013.1 hPa SSW 31.4 km/h 31.4 km/h 94 % 0.0 mm
13:00 11.3 °C 10.0 °C 1013.1 hPa WNW 10.1 km/h 31.4 km/h 94 % 0.0 mm
13:05 11.3 °C 10.0 °C 1013.1 hPa West 15.4 km/h 24.5 km/h 94 % 0.0 mm
13:10 11.3 °C 10.0 °C 1013.1 hPa West 16.6 km/h 28.5 km/h 94 % 0.0 mm
13:15 11.3 °C 10.0 °C 1013.1 hPa WNW 24.5 km/h 28.5 km/h 94 % 0.0 mm
13:20 11.3 °C 10.0 °C 1013.1 hPa SW 24.8 km/h 24.8 km/h 94 % 0.0 mm
13:25 11.3 °C 10.0 °C 1013.1 hPa SW 24.8 km/h 24.8 km/h 94 % 0.0 mm
13:30 11.3 °C 10.0 °C 1013.1 hPa WSW 16.9 km/h 24.8 km/h 94 % 0.0 mm
13:36 11.3 °C 10.0 °C 1013.1 hPa WNW 21.9 km/h 27.7 km/h 94 % 0.0 mm
13:41 11.3 °C 10.0 °C 1013.1 hPa West 16.9 km/h 27.7 km/h 94 % 0.0 mm
13:46 11.3 °C 10.0 °C 1013.1 hPa West 16.9 km/h 27.7 km/h 94 % 0.0 mm
13:51 11.3 °C 10.0 °C 1013.1 hPa West 21.2 km/h 21.2 km/h 94 % 0.0 mm
13:56 11.3 °C 10.0 °C 1013.1 hPa West 17.7 km/h 21.2 km/h 94 % 0.0 mm
14:01 11.3 °C 10.0 °C 1012.1 hPa SSW 19.8 km/h 21.2 km/h 94 % 0.0 mm
14:06 11.3 °C 10.0 °C 1012.1 hPa WSW 14.0 km/h 19.8 km/h 94 % 0.0 mm
14:11 11.3 °C 10.0 °C 1012.1 hPa WNW 9.7 km/h 19.8 km/h 94 % 0.0 mm
14:16 13.6 °C 9.0 °C 1013.1 hPa WNW 13.7 km/h 20.6 km/h 70 % 0.0 mm
14:21 13.6 °C 9.0 °C 1013.1 hPa West 23.3 km/h 23.3 km/h 70 % 0.0 mm
14:26 13.6 °C 9.0 °C 1013.1 hPa West 23.3 km/h 23.3 km/h 70 % 0.0 mm
14:31 13.6 °C 9.0 °C 1013.1 hPa West 23.3 km/h 23.3 km/h 70 % 0.0 mm
14:36 13.6 °C 9.0 °C 1013.1 hPa West 23.3 km/h 23.3 km/h 70 % 0.0 mm
14:41 13.6 °C 9.0 °C 1013.1 hPa West 16.9 km/h 16.9 km/h 70 % 0.0 mm
14:46 13.6 °C 9.0 °C 1013.1 hPa West 14.3 km/h 16.9 km/h 70 % 0.0 mm
14:51 13.6 °C 9.0 °C 1013.1 hPa SSW 21.2 km/h 21.2 km/h 70 % 0.0 mm
14:56 13.6 °C 9.0 °C 1013.1 hPa West 13.0 km/h 21.2 km/h 70 % 0.0 mm
15:01 13.6 °C 9.0 °C 1013.1 hPa West 13.7 km/h 21.2 km/h 70 % 0.0 mm
15:06 13.6 °C 9.0 °C 1013.1 hPa WSW 3.2 km/h 13.7 km/h 70 % 0.0 mm
15:11 13.6 °C 9.0 °C 1013.1 hPa SW 8.7 km/h 13.7 km/h 70 % 0.0 mm
15:16 13.6 °C 9.0 °C 1013.1 hPa WSW 6.9 km/h 10.1 km/h 70 % 0.0 mm
15:21 13.6 °C 9.0 °C 1013.1 hPa West 5.0 km/h 9.3 km/h 70 % 0.0 mm
15:26 13.6 °C 9.0 °C 1013.1 hPa West 13.0 km/h 13.0 km/h 70 % 0.0 mm
15:29 13.6 °C 9.0 °C 1013.1 hPa West 9.7 km/h 13.0 km/h 70 % 0.0 mm
15:34 13.6 °C 9.0 °C 1013.1 hPa West 15.4 km/h 15.4 km/h 70 % 0.0 mm
15:39 13.6 °C 9.0 °C 1013.1 hPa West 12.2 km/h 15.4 km/h 70 % 0.0 mm
15:44 13.6 °C 9.0 °C 1013.1 hPa WSW 17.7 km/h 17.7 km/h 70 % 0.0 mm
15:49 13.6 °C 9.0 °C 1013.1 hPa NNW 15.4 km/h 17.7 km/h 70 % 0.0 mm
15:54 13.6 °C 9.0 °C 1013.1 hPa WSW 12.6 km/h 17.7 km/h 70 % 0.0 mm
15:59 13.6 °C 9.0 °C 1013.1 hPa West 4.7 km/h 15.4 km/h 70 % 0.0 mm
16:04 13.6 °C 9.0 °C 1014.1 hPa West 6.1 km/h 12.2 km/h 70 % 0.0 mm
16:09 13.6 °C 9.0 °C 1014.1 hPa South 10.8 km/h 16.9 km/h 70 % 0.0 mm
16:14 13.6 °C 9.0 °C 1014.1 hPa West 6.9 km/h 16.9 km/h 70 % 0.0 mm
16:19 13.6 °C 9.0 °C 1014.1 hPa NNE 12.2 km/h 14.3 km/h 70 % 0.0 mm
16:24 13.6 °C 9.0 °C 1014.1 hPa West 9.3 km/h 17.7 km/h 70 % 0.0 mm
16:29 13.6 °C 9.0 °C 1014.1 hPa West 11.9 km/h 17.7 km/h 70 % 0.0 mm
16:34 13.6 °C 9.0 °C 1014.1 hPa WSW 10.5 km/h 11.9 km/h 70 % 0.0 mm
16:39 13.6 °C 9.0 °C 1014.1 hPa West 5.0 km/h 13.0 km/h 70 % 0.0 mm
16:44 13.6 °C 9.0 °C 1014.1 hPa West 5.0 km/h 13.0 km/h 70 % 0.0 mm
16:49 13.6 °C 9.0 °C 1014.1 hPa West 12.2 km/h 13.7 km/h 70 % 0.0 mm
16:55 13.6 °C 9.0 °C 1014.1 hPa West 12.2 km/h 13.7 km/h 70 % 0.3 mm
17:00 13.6 °C 9.0 °C 1014.1 hPa West 12.2 km/h 13.7 km/h 70 % 0.3 mm
17:05 13.6 °C 9.0 °C 1014.1 hPa WSW 17.7 km/h 17.7 km/h 70 % 0.3 mm
17:10 13.6 °C 9.0 °C 1014.1 hPa WSW 17.7 km/h 17.7 km/h 70 % 0.3 mm
17:15 13.6 °C 9.0 °C 1014.1 hPa West 9.0 km/h 9.0 km/h 70 % 0.3 mm
17:20 13.6 °C 9.0 °C 1014.1 hPa WSW 6.1 km/h 10.5 km/h 70 % 0.3 mm
17:25 13.6 °C 9.0 °C 1014.1 hPa WSW 9.3 km/h 11.9 km/h 70 % 0.3 mm
17:30 13.6 °C 9.0 °C 1014.1 hPa WSW 10.1 km/h 11.9 km/h 70 % 0.3 mm
17:35 13.6 °C 9.0 °C 1014.1 hPa WSW 9.0 km/h 11.9 km/h 70 % 0.3 mm
17:40 13.6 °C 9.0 °C 1014.1 hPa WSW 9.0 km/h 11.9 km/h 70 % 0.3 mm
17:45 10.3 °C 9.0 °C 1014.1 hPa WSW 9.0 km/h 9.0 km/h 87 % 0.3 mm
17:50 10.3 °C 9.0 °C 1014.1 hPa WSW 9.0 km/h 9.0 km/h 87 % 0.3 mm
17:55 10.3 °C 9.0 °C 1014.1 hPa WSW 9.0 km/h 9.0 km/h 87 % 0.0 mm
18:00 10.3 °C 9.0 °C 1014.1 hPa WSW 9.0 km/h 9.0 km/h 87 % 0.0 mm
18:05 10.3 °C 9.0 °C 1014.1 hPa West 11.6 km/h 11.6 km/h 87 % 0.0 mm
18:10 10.7 °C 9.0 °C 1014.1 hPa SW 9.3 km/h 11.6 km/h 86 % 0.0 mm
18:15 10.7 °C 9.0 °C 1014.1 hPa WSW 6.1 km/h 11.6 km/h 86 % 0.0 mm
18:21 10.8 °C 9.0 °C 1014.1 hPa WSW 9.0 km/h 9.7 km/h 85 % 0.0 mm
18:26 10.8 °C 9.0 °C 1014.1 hPa WSW 8.7 km/h 9.7 km/h 85 % 0.0 mm
18:31 10.8 °C 9.0 °C 1015.1 hPa WSW 8.7 km/h 9.7 km/h 85 % 0.0 mm
18:36 10.3 °C 8.0 °C 1015.1 hPa WSW 7.9 km/h 9.0 km/h 84 % 0.0 mm
18:41 10.3 °C 8.0 °C 1015.1 hPa WSW 8.7 km/h 9.0 km/h 84 % 0.0 mm
18:46 10.0 °C 8.0 °C 1015.1 hPa WSW 8.7 km/h 9.0 km/h 84 % 0.0 mm
18:51 10.0 °C 8.0 °C 1015.1 hPa WSW 7.2 km/h 8.7 km/h 84 % 0.0 mm
18:56 10.0 °C 8.0 °C 1015.1 hPa Calm   7.2 km/h 84 % 0.0 mm
19:01 10.0 °C 8.0 °C 1015.1 hPa Calm   7.2 km/h 84 % 0.0 mm
19:06 9.7 °C 8.0 °C 1015.1 hPa Calm     86 % 0.0 mm
19:11 9.7 °C 8.0 °C 1015.1 hPa Calm     86 % 0.0 mm
19:16 9.7 °C 8.0 °C 1015.1 hPa Calm     86 % 0.0 mm
19:21 9.7 °C 8.0 °C 1015.1 hPa Calm     86 % 0.0 mm
19:26 9.7 °C 8.0 °C 1015.1 hPa Calm     86 % 0.0 mm
19:31 9.7 °C 8.0 °C 1015.1 hPa Calm     86 % 0.0 mm
19:36 9.7 °C 8.0 °C 1015.1 hPa Calm   3.5 km/h 86 % 0.0 mm
19:41 9.7 °C 8.0 °C 1015.1 hPa Calm   3.5 km/h 86 % 0.0 mm
19:46 9.7 °C 8.0 °C 1014.1 hPa Calm     86 % 0.0 mm
19:51 9.7 °C 8.0 °C 1014.1 hPa Calm     86 % 0.0 mm
19:56 9.7 °C 8.0 °C 1014.1 hPa Calm     86 % 0.0 mm
19:58 9.7 °C 8.0 °C 1014.1 hPa Calm     86 % 0.0 mm
20:03 9.7 °C 8.0 °C 1015.1 hPa Calm     86 % 0.0 mm
20:09 9.7 °C 8.0 °C 1015.1 hPa Calm     86 % 0.0 mm
20:14 9.7 °C 8.0 °C 1015.1 hPa Calm     86 % 0.0 mm
20:19 9.7 °C 8.0 °C 1015.1 hPa Calm     86 % 0.0 mm
20:24 9.7 °C 8.0 °C 1015.1 hPa Calm     86 % 0.0 mm
20:29 9.7 °C 8.0 °C 1015.1 hPa Calm     86 % 0.0 mm
20:34 9.7 °C 8.0 °C 1015.1 hPa Calm   7.6 km/h 86 % 0.0 mm
20:39 9.7 °C 8.0 °C 1015.1 hPa WSW 7.9 km/h 9.3 km/h 86 % 0.0 mm
20:44 9.7 °C 8.0 °C 1015.1 hPa Calm   9.3 km/h 86 % 0.0 mm
20:49 9.7 °C 8.0 °C 1015.1 hPa Calm   7.9 km/h 86 % 0.0 mm
20:54 9.7 °C 8.0 °C 1015.1 hPa Calm     86 % 0.0 mm
20:59 9.7 °C 8.0 °C 1015.1 hPa Calm     86 % 0.0 mm
21:04 9.7 °C 8.0 °C 1016.1 hPa Calm     86 % 0.0 mm
21:09 9.7 °C 8.0 °C 1016.1 hPa Calm     86 % 0.0 mm
21:14 9.7 °C 8.0 °C 1016.1 hPa Calm     87 % 0.0 mm
21:19 9.7 °C 8.0 °C 1016.1 hPa SW 10.1 km/h 10.1 km/h 87 % 0.0 mm
21:24 9.7 °C 8.0 °C 1016.1 hPa Calm   10.1 km/h 87 % 0.0 mm
21:29 9.7 °C 8.0 °C 1016.1 hPa Calm   10.1 km/h 87 % 0.0 mm
21:34 9.6 °C 8.0 °C 1016.1 hPa Calm     86 % 0.0 mm
21:39 9.3 °C 7.0 °C 1016.1 hPa Calm     85 % 0.0 mm
21:44 9.3 °C 7.0 °C 1016.1 hPa Calm   4.7 km/h 85 % 0.0 mm
21:49 9.3 °C 7.0 °C 1016.1 hPa Calm   4.7 km/h 85 % 0.0 mm
21:54 9.3 °C 7.0 °C 1016.1 hPa Calm   4.7 km/h 85 % 0.0 mm
21:59 9.3 °C 7.0 °C 1016.1 hPa Calm     85 % 0.0 mm
22:04 8.5 °C 7.0 °C 1016.8 hPa West 6.4 km/h 6.4 km/h 86 % 0.0 mm
22:09 8.5 °C 7.0 °C 1016.8 hPa Calm   6.4 km/h 86 % 0.0 mm
22:14 8.5 °C 7.0 °C 1016.8 hPa Calm   6.4 km/h 86 % 0.0 mm
22:19 8.5 °C 7.0 °C 1016.8 hPa West 5.5 km/h 5.5 km/h 86 % 0.0 mm
22:24 8.5 °C 7.0 °C 1016.8 hPa West 5.5 km/h 5.5 km/h 86 % 0.0 mm
22:29 8.5 °C 7.0 °C 1016.8 hPa West 5.5 km/h 5.5 km/h 86 % 0.0 mm
22:35 8.5 °C 7.0 °C 1016.8 hPa West 5.5 km/h 5.5 km/h 86 % 0.0 mm
22:40 8.5 °C 7.0 °C 1016.8 hPa West 5.5 km/h 5.5 km/h 86 % 0.0 mm
22:45 8.5 °C 7.0 °C 1016.8 hPa West 5.5 km/h 5.5 km/h 86 % 0.0 mm
22:50 8.5 °C 7.0 °C 1016.8 hPa West 5.5 km/h 5.5 km/h 86 % 0.0 mm
22:55 8.5 °C 7.0 °C 1016.8 hPa Calm     86 % 0.0 mm
23:00 8.5 °C 7.0 °C 1016.8 hPa Calm     86 % 0.0 mm
23:02 8.5 °C 7.0 °C 1016.8 hPa Calm     86 % 0.0 mm
23:07 8.5 °C 7.0 °C 1016.8 hPa Calm     86 % 0.0 mm
23:12 8.5 °C 7.0 °C 1016.8 hPa Calm   6.4 km/h 86 % 0.0 mm
23:17 8.5 °C 7.0 °C 1016.8 hPa WNW 6.1 km/h 6.4 km/h 86 % 0.0 mm
23:22 8.5 °C 7.0 °C 1016.8 hPa Calm   6.1 km/h 86 % 0.0 mm
23:27 8.5 °C 7.0 °C 1016.8 hPa Calm   6.1 km/h 86 % 0.0 mm
23:33 8.5 °C 7.0 °C 1016.8 hPa Calm     86 % 0.0 mm
23:38 8.5 °C 7.0 °C 1016.8 hPa Calm   7.6 km/h 86 % 0.0 mm
23:43 8.5 °C 7.0 °C 1016.8 hPa Calm   7.6 km/h 86 % 0.0 mm
23:48 8.5 °C 7.0 °C 1016.8 hPa Calm   6.9 km/h 86 % 0.0 mm
23:53 8.5 °C 7.0 °C 1016.8 hPa Calm   6.9 km/h 86 % 0.0 mm
23:58 8.5 °C 7.0 °C 1016.8 hPa Calm   4.7 km/h 86 % 0.0 mm
Le Gheer Warneton
Courtoisie de Weather Underground - 2.25 mb

Mise a jour : 18/12/2017 21:27:11
Généré par Cumulus 1.9.4 (1099)